Lid_Strength_Index
1 1 1 1 1 0 1 3 3 3 3 3 3 3 3 3 3 2 2 2 3 3 3 4 3 3 3 4 4 5 4 4 6 5 4 4 3 1 1 -0 -0 1 1
1 1 1 1 1 1 2 2 2 3 3 3 3 3 2 3 3 3 2 3 3 2 3 4 3 3 4 3 4 4 4 4 5 6 5 3 1 2 1 2 0 1 1
1 1 1 1 1 1 1 2 2 2 2 2 3 3 3 3 2 3 3 2 2 2 3 3 3 3 4 4 4 4 4 4 4 5 5 3 3 1 2 1 1 2 1
1 1 1 1 1 1 1 1 1 1 2 2 2 3 3 3 2 2 3 2 3 3 3 4 3 4 4 4 4 4 4 4 4 5 4 4 3 3 3 4 3 3 2
1 1 1 1 1 1 1 1 1 1 1 2 2 2 2 1 2 2 2 3 3 4 3 2 4 3 1 2 4 3 4 5 6 5 5 5 4 4 4 3 4 3 2
1 1 1 1 1 1 1 1 1 2 1 2 2 1 2 2 5 5 3 4 4 4 4 4 3 3 2 3 4 5 5 6 5 4 5 6 4 4 4 4 4 5 6
1 1 1 1 1 1 1 1 1 1 1 2 2 2 2 2 6 6 5 5 5 4 5 4 4 3 3 3 4 4 5 4 4 3 4 3 3 3 4 4 5 5 5
1 1 1 1 1 1 1 1 1 1 2 2 1 2 3 2 8 8 6 3 4 4 4 4 4 4 3 4 3 4 5 3 2 3 3 1 1 2 3 3 4 4 3
1 1 1 1 1 1 1 1 1 1 1 1 1 1 2 2 7 8 6 5 4 5 4 4 3 3 5 6 4 3 1 1 1 2 1 2 3 4 4 4 5 5 6
1 1 0 1 1 1 1 1 0 1 1 1 1 1 2 3 8 8 6 5 5 4 3 3 4 4 6 7 4 1 2 2 2 2 2 2 3 3 3 3 4 5 6
0 0 0 0 1 1 1 0 1 1 1 1 1 1 1 3 7 8 7 4 4 4 4 3 3 6 7 8 6 1 2 4 2 2 3 3 1 1 2 1 2 3 5
-0 0 1 1 1 1 0 1 1 1 2 2 2 2 3 3 6 8 8 7 5 4 3 3 3 7 8 8 6 4 5 5 3 4 4 3 2 3 2 3 3 3 3
1 1 1 1 1 1 1 1 2 1 2 2 3 3 3 3 4 8 8 7 7 4 3 5 8 8 7 7 7 6 5 4 4 4 3 3 2 2 3 4 3 3 3
1 1 1 1 1 1 1 1 2 1 2 2 3 3 4 4 4 4 4 6 6 5 5 5 7 7 6 4 4 5 4 3 3 3 3 2 2 3 4 4 4 4 4
1 1 1 1 1 1 1 1 1 1 1 2 2 2 4 4 4 4 4 4 4 4 5 5 5 6 5 5 4 3 2 3 3 2 3 4 4 4 5 4 5 5 6
2 1 1 1 1 1 1 1 8 8 9 9 9 4 3 5 7 7 7 7 7 7 5 5 5 5 4 3 2 3 1 2 2 3 4 4 5 5 6 5 5 6 7
1 1 1 2 1 2 2 2 2 6 9 9 8 8 6 5 7 8 8 9 9 9 6 6 7 5 3 3 3 3 3 2 3 4 4 5 5 6 6 6 6 7 7
1 3 1 1 1 1 1 2 2 2 3 3 8 7 8 8 8 9 10 9 6 8 7 7 7 4 3 3 3 3 4 4 4 4 5 5 5 6 7 7 7 7 8
2 1 1 1 1 1 1 1 1 2 3 2 6 8 10 11 9 10 10 5 6 7 7 7 4 3 3 3 3 4 4 4 5 5 4 5 6 7 7 7 7 9 9
1 3 3 1 1 1 1 1 2 2 3 3 4 6 7 8 7 6 7 7 6 6 5 6 4 3 3 3 3 4 4 5 5 5 6 6 7 7 8 9 8 8 8
1 1 3 1 1 2 2 2 2 2 3 3 4 6 9 5 6 7 7 6 5 5 6 5 4 4 4 3 5 5 5 5 5 6 7 7 8 9 9 9 9 8 8
1 1 1 1 1 2 2 2 2 2 2 3 6 8 11 8 6 5 6 4 5 6 5 3 4 3 3 5 5 5 5 6 7 7 7 8 9 9 10 10 9 9 8
1 1 1 1 2 3 2 2 2 3 4 6 6 6 5 5 5 4 4 4 5 5 3 3 3 3 4 4 5 6 7 7 7 7 8 9 10 10 10 10 9 9 8
1 1 1 1 2 2 2 3 4 5 5 5 5 5 5 5 4 4 4 4 3 3 3 2 3 3 4 4 5 7 9 9 7 7 8 9 10 9 9 9 9 8 8
1 1 2 2 2 2 2 3 2 3 5 5 5 5 5 4 4 4 3 3 3 3 3 2 2 4 5 6 7 9 12 13 10 13 8 8 8 8 8 8 8 7 7
1 1 1 1 2 2 2 2 3 4 4 4 4 5 4 5 4 3 3 3 3 3 2 2 3 5 6 8 9 12 13 13 11 13 11 7 7 7 7 7 7 7 7